Flag for India Weather past 2 weeks in Kannauj, Uttar Pradesh, India

Now
63 °F

Fog.


Feels Like: 63 °F
Forecast: 58 / 72 °F
Wind: 2 mph from North

Location: Lucknow / Amausi

Current Time: Mar 3, 2015 at 1:01:18 AM

Latest Report: Mar 3, 2015 at 12:00 AM


Visibility: 2 mi

Pressure: 29.95 "Hg

Humidity: 94%

Dew point: 61 °F

Location of KannaujLocation

Historic Weather in Kannauj — Graph

°F

Kannauj temperature yesterday

Maximum temperature yesterday: 72 °F (at 11:30 AM)
Minimum temperature yesterday: 61 °F (at 12:00 AM)
Average temperature yesterday: 67 °F

Past Weeks' High & Low Weather Summary

 TemperatureHumidityPressure
High88 °F (Feb 20, 2:00 PM)100% (Mar 1, 10:30 AM)30.04 "Hg (Mar 1, 10:30 AM)
Low57 °F (Feb 16, 7:00 AM)40% (Feb 21, 11:00 AM)29.71 "Hg (Feb 26, 4:00 AM)
Average72 °F73%29.89 "Hg
* Reported Feb 15 11:00 PM — Mar 2 11:00 PM, Kannauj, Weather by CustomWeather, © 2015

Note: Actual official high and low records may vary slightly from our data, if they occured in-between our weather recording intervals... More about our weather records

Advertising

Kannauj weather history for previous 24 hours

 ConditionsComfort  
Time TempWeatherWind HumidityBarometerVisibility
11:00 PM
Mon, Mar 2
64 °FPartly cloudy.2 mph94%29.95 "Hg2 mi
9:00 PM66 °FPartly cloudy.6 mph88%29.95 "Hg2 mi
8:30 PM66 °FPartly cloudy.5 mph88%29.95 "Hg2 mi
8:00 PM66 °FPartly cloudy.7 mph88%29.92 "Hg2 mi
7:30 PM68 °FLight rain. Partly cloudy.7 mph83%29.92 "Hg2 mi
6:30 PM68 °FBroken clouds.6 mph83%29.89 "Hg2 mi
6:00 PM70 °FBroken clouds.5 mph78%30.04 "Hg3 mi
5:30 PM70 °FBroken clouds.7 mph73%29.89 "Hg3 mi
5:00 PM72 °FBroken clouds.9 mph73%29.89 "Hg3 mi
4:30 PM72 °FBroken clouds.9 mph73%29.86 "Hg3 mi
4:00 PM72 °FBroken clouds.7 mph73%29.89 "Hg3 mi
3:30 PM72 °FBroken clouds.9 mph73%29.89 "Hg3 mi
3:00 PM72 °FBroken clouds.12 mph73%29.89 "Hg3 mi
12:00 PM72 °FBroken clouds.14 mph73%29.98 "Hg3 mi
11:30 AM72 °FScattered clouds.16 mph73%29.98 "Hg3 mi
11:00 AM70 °FBroken clouds.16 mph73%29.98 "Hg2 mi
10:30 AM68 °FScattered clouds.14 mph78%29.98 "Hg2 mi
10:00 AM66 °FBroken clouds.12 mph83%30.01 "Hg2 mi
9:30 AM66 °FScattered clouds.12 mph78%30.01 "Hg2 mi
9:00 AM66 °FScattered clouds.12 mph78%29.98 "Hg2 mi
8:30 AM64 °FScattered clouds.6 mph83%29.98 "Hg2 mi
8:00 AM63 °FScattered clouds.6 mph88%29.98 "Hg2 mi
7:30 AM63 °FScattered clouds.3 mph88%29.98 "Hg2 mi
7:00 AM61 °FBroken clouds.5 mph94%29.95 "Hg2 mi
6:30 AM61 °FMostly cloudy.6 mph94%29.92 "Hg2 mi
1:00 AM61 °FPartly cloudy.12 mph94%29.95 "Hg2 mi
Weather by CustomWeather, © 2015

See weather overviewHow to use our weather pages